Charlottesville, VA

10:36 PM EDT on October 18, 2019 (GMT -0400)
Charlottesville-Albemarle

Weather History for KCHO - August, 2019

Change the Weather History Date:

Thursday, August 22, 2019

  Actual Average Record
Temperature  
Mean Temperature 82 °F 74 °F  
Max Temperature 93 °F 85 °F 96 °F (1959)
Min Temperature 70 °F 63 °F 52 °F (1934)
Degree Days  
Heating Degree Days 0 0  
Month to date heating degree days 0 0  
Since 1 June heating degree days 0 12  
Since 1 July heating degree days 0 1  
Cooling Degree Days 17 9  
Month to date cooling degree days 323 210  
Year to date cooling degree days 1391 840  
Since 1 June cooling degree days 1105 754  
Growing Degree Days 32 (Base 50)    
Moisture  
Dew Point 69 °F    
Average Humidity 72    
Maximum Humidity 90    
Minimum Humidity 48    
Precipitation  
Precipitation 0.36 in 0.09 in 1.05 in (1974)
Month to date precipitation 2.03 2.77  
Year to date precipitation 27.33 27.29  
Sea Level Pressure  
Sea Level Pressure 29.93 in    
Wind  
Wind Speed 4 mph ()    
Max Wind Speed 18 mph    
Max Gust Speed 34 mph    
Visibility 9.1 miles    
Events Rain , Thunderstorm    
T = Trace of Precipitation, MM = Missing Value Source: Averaged Metar Reports

Daily Weather History Graph

Daily Weather History Graph

Search for Another Location

Airport or City:

Astronomy

Aug. 22, 2019 Rise Set
Actual Time 6:34 AM EDT 7:58 PM EDT
Civil Twilight 6:06 AM EDT 8:25 PM EDT
Nautical Twilight 5:33 AM EDT 8:58 PM EDT
Astronomical Twilight 4:58 AM EDT 9:33 PM EDT
Moon 11:53 PM EDT (8/22) 1:02 PM EDT (8/22)
Length of Visible Light 14h 18m
Length of Day
13h 23m
Waning Gibbous, 60% of the Moon is Illuminated
Aug 22
Waning Gibbous
Aug 23
Last Quarter
Aug 30
New
Sep 5
First Quarter
Sep 14
Full

Hourly Weather History & Observations

Time (EDT) Temp. Heat Index Dew Point Humidity Pressure Visibility Wind Dir Wind Speed Gust Speed Precip Events Conditions
2:53 AM 75.9 °F - 66.9 °F 74% 29.91 in 10.0 mi SSW 3.5 mph - N/A   Clear
3:53 AM 75.0 °F - 66.0 °F 73% 29.91 in 10.0 mi South 3.5 mph - N/A   Clear
4:53 AM 73.9 °F - 66.9 °F 79% 29.91 in 10.0 mi Calm Calm - N/A   Clear
5:53 AM 72.0 °F - 66.9 °F 84% 29.93 in 10.0 mi Calm Calm - N/A   Clear
6:53 AM 73.0 °F - 66.0 °F 79% 29.95 in 10.0 mi SW 3.5 mph - N/A   Clear
7:53 AM 75.9 °F - 68.0 °F 76% 29.96 in 10.0 mi Calm Calm - N/A   Clear
8:53 AM 79.0 °F - 70.0 °F 74% 29.96 in 10.0 mi Calm Calm - N/A   Clear
9:53 AM 84.0 °F 88.4 °F 70.0 °F 63% 29.96 in 10.0 mi Calm Calm - N/A   Clear
10:53 AM 89.1 °F 93.7 °F 69.1 °F 52% 29.97 in 10.0 mi Calm Calm - N/A   Clear
11:53 AM 90.0 °F 95.4 °F 70.0 °F 52% 29.96 in 10.0 mi Variable 3.5 mph - N/A   Clear
12:53 PM 90.0 °F 96.4 °F 71.1 °F 54% 29.95 in 10.0 mi ESE 4.6 mph - N/A   Scattered Clouds
1:53 PM 91.9 °F 98.4 °F 71.1 °F 50% 29.93 in 10.0 mi Variable 3.5 mph - N/A   Partly Cloudy
2:53 PM 93.0 °F 100.1 °F 71.1 °F 49% 29.90 in 10.0 mi Variable 3.5 mph - N/A   Clear
3:36 PM 91.0 °F 95.6 °F 69.1 °F 48% 29.91 in 10.0 mi SE 6.9 mph - N/A Thunderstorm Clear
3:53 PM 90.0 °F 94.5 °F 69.1 °F 50% 29.90 in 10.0 mi SW 10.4 mph 21.9 mph N/A Thunderstorm Partly Cloudy
4:04 PM 75.0 °F - 66.0 °F 73% 29.94 in 6.0 mi SW 12.7 mph 34.5 mph 0.01 in Rain , Thunderstorm Thunderstorms and Rain
4:08 PM 73.0 °F - 66.0 °F 79% 29.94 in 1.8 mi SW 10.4 mph 34.5 mph 0.09 in Rain , Thunderstorm Heavy Thunderstorms and Rain
4:17 PM 73.0 °F - 66.9 °F 81% 29.95 in 0.5 mi SSW 16.1 mph 21.9 mph 0.33 in Rain , Thunderstorm Heavy Thunderstorms and Rain
4:31 PM 73.9 °F - 66.9 °F 79% 29.93 in 7.0 mi SE 8.1 mph - 0.35 in Rain , Thunderstorm Light Thunderstorms and Rain
4:45 PM 72.0 °F - 68.0 °F 87% 29.93 in 10.0 mi WNW 3.5 mph - 0.35 in Thunderstorm Partly Cloudy
5:02 PM 73.0 °F - 68.0 °F 84% 29.94 in 10.0 mi Variable 3.5 mph - N/A   Clear
5:53 PM 78.1 °F - 70.0 °F 76% 29.92 in 10.0 mi SW 4.6 mph - N/A   Clear
6:53 PM 77.0 °F - 70.0 °F 79% 29.93 in 10.0 mi SSW 8.1 mph - N/A   Scattered Clouds
7:53 PM 75.9 °F - 68.0 °F 76% 29.92 in 10.0 mi SW 3.5 mph - N/A   Scattered Clouds
8:53 PM 75.0 °F - 69.1 °F 82% 29.93 in 10.0 mi South 6.9 mph - 0.01 in   Partly Cloudy
9:53 PM 73.9 °F - 70.0 °F 87% 29.93 in 10.0 mi SSW 8.1 mph - N/A   Clear
10:53 PM 73.9 °F - 70.0 °F 87% 29.94 in 10.0 mi South 6.9 mph - N/A   Clear
11:53 PM 73.0 °F - 70.0 °F 90% 29.94 in 9.0 mi Calm Calm - N/A   Clear